Weather History for Topeka, KS

Change the Weather History Date:

Friday, September 2, 2011

  Actual Average Record
Temperature  
Mean Temperature 91 °F 74 °F  
Max Temperature 101 °F 86 °F 109 °F (2000)
Min Temperature 80 °F 62 °F 46 °F (1888)
Degree Days  
Heating Degree Days 0 0  
Month to date heating degree days 0 0  
Since 1 July heating degree days 0 2  
Cooling Degree Days 26 9  
Month to date cooling degree days 55 18  
Year to date cooling degree days 1809 1246  
Growing Degree Days 40 (Base 50)    
Moisture  
Dew Point 62 °F    
Average Humidity 41    
Maximum Humidity 58    
Minimum Humidity 24    
Precipitation  
Precipitation 0.00 in 0.13 in 2.28 in (1942)
Month to date precipitation 0.01 0.25  
Year to date precipitation 22.66 26.82  
Snow  
Snow 0.00 in 0.00 in 0.00 in ()
Month to date snowfall 0.0 0.0  
Year to date snowfall 38.5 11.3  
Since 1 July snowfall 0.0 0.0  
Snow Depth 0.00 in    
Sea Level Pressure  
Sea Level Pressure 29.84 in    
Wind  
Wind Speed 8 mph (South)    
Max Wind Speed 20 mph    
Max Gust Speed 25 mph    
Visibility 10 miles    
Events      
T = Trace of Precipitation, MM = Missing Value Source: NWS Daily Summary

Daily Weather History Graph

Daily Weather History Graph

Search for Another Location

Airport:

Trip Planner

Search our weather history database for the weather conditions in past years. The results will help you decide how hot, cold, wet, or windy it might be!

Date:

Astronomy

Sep. 02, 2011 Rise Set
Actual Time 6:51 AM CDT 7:51 PM CDT
Civil Twilight 6:24 AM CDT 8:19 PM CDT
Nautical Twilight 5:52 AM CDT 8:51 PM CDT
Astronomical Twilight 5:18 AM CDT 9:25 PM CDT
Moon 12:22 PM CDT (9/2) 10:30 PM CDT (9/2)
Length of Visible Light 13h 54m
Length of Day
12h 59m
Waxing Crescent, 28% of the Moon is Illuminated
Sep 2
Waxing Crescent
Sep 4
First Quarter
Sep 12
Full
Sep 20
Last Quarter
Sep 27
New

Hourly Weather History & Observations

Time (CDT) Temp. Heat Index Dew Point Humidity Pressure Visibility Wind Dir Wind Speed Gust Speed Precip Events Conditions
12:53 AM 87.8 °F 88.5 °F 62.6 °F 43% 29.87 in 10.0 mi South 11.5 mph - N/A   Clear
1:53 AM 86.0 °F 87.3 °F 64.4 °F 48% 29.87 in 10.0 mi South 9.2 mph - N/A   Clear
2:53 AM 84.9 °F 86.1 °F 64.0 °F 49% 29.83 in 10.0 mi South 9.2 mph - N/A   Clear
3:53 AM 84.0 °F 85.8 °F 64.9 °F 53% 29.84 in 10.0 mi South 8.1 mph - N/A   Clear
4:53 AM 82.9 °F 84.6 °F 64.9 °F 54% 29.84 in 10.0 mi South 9.2 mph - N/A   Clear
5:53 AM 81.0 °F 82.7 °F 64.9 °F 58% 29.85 in 10.0 mi SSW 5.8 mph - N/A   Clear
6:53 AM 80.1 °F 81.7 °F 64.0 °F 58% 29.87 in 9.0 mi SSW 6.9 mph - N/A   Clear
7:53 AM 81.0 °F 82.5 °F 64.0 °F 56% 29.89 in 9.0 mi SW 5.8 mph - N/A   Clear
8:53 AM 82.9 °F 84.4 °F 64.0 °F 53% 29.88 in 9.0 mi SSW 9.2 mph - N/A   Clear
9:53 AM 87.1 °F 87.8 °F 63.0 °F 44% 29.88 in 10.0 mi SW 8.1 mph - N/A   Clear
10:53 AM 91.9 °F 92.5 °F 62.1 °F 37% 29.89 in 10.0 mi SSW 8.1 mph - N/A   Clear
11:53 AM 95.0 °F 94.8 °F 60.1 °F 31% 29.89 in 10.0 mi SW 9.2 mph - N/A   Clear
12:53 PM 97.0 °F 96.5 °F 59.0 °F 28% 29.87 in 10.0 mi WSW 8.1 mph - N/A   Clear
1:53 PM 99.0 °F 98.6 °F 59.0 °F 26% 29.84 in 10.0 mi South 11.5 mph 18.4 mph N/A   Clear
2:53 PM 100.0 °F 99.7 °F 57.9 °F 25% 29.83 in 10.0 mi South 11.5 mph 18.4 mph N/A   Clear
3:53 PM 100.9 °F 101.6 °F 60.1 °F 26% 29.81 in 10.0 mi SSE 17.3 mph - N/A   Clear
4:53 PM 100.0 °F 99.7 °F 57.9 °F 25% 29.80 in 10.0 mi SSE 12.7 mph - N/A   Clear
5:53 PM 98.1 °F 97.7 °F 59.0 °F 27% 29.80 in 10.0 mi SSE 11.5 mph - N/A   Partly Cloudy
6:53 PM 96.1 °F 95.6 °F 59.0 °F 29% 29.80 in 10.0 mi South 6.9 mph - N/A   Clear
7:53 PM 90.0 °F 90.0 °F 61.0 °F 38% 29.80 in 10.0 mi SSE 6.9 mph - N/A   Clear
8:53 PM 87.1 °F 87.0 °F 61.0 °F 41% 29.81 in 10.0 mi SSE 6.9 mph - N/A   Clear
9:53 PM 84.9 °F 85.0 °F 61.0 °F 44% 29.83 in 10.0 mi South 4.6 mph - N/A   Clear
10:53 PM 86.0 °F 85.7 °F 60.1 °F 41% 29.83 in 10.0 mi South 5.8 mph - N/A   Clear
11:53 PM 84.9 °F 84.8 °F 60.1 °F 43% 29.83 in 10.0 mi South 5.8 mph - N/A   Clear